GFSSW_sfc_temp_246.txt.gz
Temp
60 60 60 60 60 60 60 60 61 60 60 61 61 61 61 61 60 59 55 60 60 63 62 63 62 60 60 56 58 59 46 46 51 54 59 65 64 74 75 74 72 71 70 71 70
59 59 59 60 59 59 60 60 60 60 60 60 60 61 61 60 57 56 63 62 63 62 60 56 54 56 53 52 54 50 44 47 58 61 61 62 64 68 67 68 68 67 68 68 66
58 58 58 59 59 59 59 60 60 60 60 60 60 60 60 59 53 56 63 64 63 63 60 58 56 53 48 51 51 50 43 53 55 57 60 55 58 63 65 65 71 67 66 62 63
58 58 58 58 58 59 59 59 60 60 60 60 60 60 59 56 44 61 64 64 63 62 57 54 50 43 44 43 49 41 50 52 53 55 54 54 56 57 59 69 70 71 70 63 61
57 57 57 57 58 58 59 59 59 60 60 60 60 60 57 52 53 65 61 61 61 58 53 49 45 42 37 44 46 41 45 50 53 53 54 56 53 54 54 64 67 69 67 62 62
57 57 57 57 57 58 58 59 59 59 60 60 60 59 53 46 63 62 60 59 59 57 53 50 45 44 39 41 41 47 47 47 50 51 53 52 54 52 56 61 63 64 63 62 62
57 57 56 57 57 58 58 58 59 59 59 60 60 58 49 53 62 61 60 58 58 56 51 54 49 43 43 42 50 47 41 47 48 49 49 53 47 49 57 60 59 55 55 58 60
56 56 56 57 57 57 58 58 59 58 59 60 59 56 49 62 64 61 62 58 59 58 54 54 52 44 41 46 46 41 42 36 49 50 50 46 40 54 54 59 59 56 54 54 55
56 56 56 56 57 57 57 58 57 58 60 60 56 52 49 63 57 60 59 54 55 56 55 56 50 43 44 38 34 36 32 35 40 50 45 40 34 52 58 54 58 59 55 55 55
56 56 56 56 56 57 57 56 57 58 59 59 56 48 55 50 56 56 59 56 52 51 50 48 46 40 40 35 28 29 30 36 34 43 42 37 36 49 55 53 52 56 59 55 55
56 56 56 56 56 57 54 56 54 52 53 48 47 47 51 55 56 56 57 54 52 49 41 44 36 32 35 36 35 33 31 31 37 42 36 35 43 45 50 51 51 54 56 56 56
56 55 55 56 56 55 53 47 44 45 45 47 47 47 50 51 45 53 58 49 47 41 45 40 34 37 39 39 35 33 33 32 38 43 40 38 40 46 50 49 49 49 54 54 55
55 55 55 55 54 52 48 45 49 48 45 46 48 47 49 49 46 48 52 47 43 43 41 35 41 38 38 41 39 38 38 39 37 44 46 42 36 43 47 49 49 49 51 53 52
54 54 55 55 52 49 46 48 50 50 36 41 45 47 49 48 44 52 51 47 45 40 41 43 47 44 46 43 41 40 44 43 42 43 34 46 29 40 48 47 48 50 48 45 48
54 54 54 53 49 47 47 49 49 47 32 41 43 54 50 45 44 49 51 49 41 41 44 41 41 40 44 41 43 41 47 44 44 43 43 39 37 39 48 45 47 49 50 46 46
54 54 53 51 49 47 48 49 48 35 30 35 40 39 43 43 44 46 45 50 46 42 45 43 46 44 42 42 43 48 47 46 45 45 32 39 40 36 40 42 46 49 50 50 47
53 53 50 50 46 48 48 47 34 32 34 32 33 38 37 37 40 40 39 36 32 31 32 40 43 46 44 45 50 49 44 37 34 31 29 42 36 36 44 46 46 46 49 50 51
53 51 47 47 48 48 47 38 31 23 27 34 33 36 33 35 37 38 37 35 39 35 33 32 35 41 44 40 38 41 42 34 26 29 33 41 31 36 47 49 50 50 50 52 50
51 47 46 46 47 47 42 32 32 29 33 33 34 32 31 34 34 36 32 33 36 37 30 29 33 43 41 42 41 43 39 42 33 26 34 36 39 47 49 48 48 48 49 49 50
46 44 43 45 45 44 34 33 29 31 34 35 31 29 28 27 31 32 32 35 34 38 37 35 30 38 42 45 45 42 44 38 39 28 25 32 34 36 41 43 45 45 46 48 50
45 38 42 44 45 38 31 30 25 32 35 34 29 25 28 28 26 28 30 34 36 37 39 37 35 35 40 36 33 39 40 40 40 36 30 28 33 44 42 43 44 44 45 47 48
40 32 41 43 33 20 28 24 32 32 35 32 33 32 31 29 28 28 29 34 38 37 33 38 33 30 31 40 40 38 37 38 37 31 34 34 33 43 44 44 45 45 45 47 48
33 34 42 42 29 26 23 22 28 31 32 32 30 34 34 31 28 31 30 37 38 37 34 36 31 28 29 35 40 36 39 39 38 37 30 32 33 43 44 44 44 46 47 47 49
34 29 33 37 32 29 23 25 25 33 34 35 33 35 32 28 27 28 32 36 37 37 38 39 31 27 29 29 32 33 37 39 38 33 33 34 34 40 41 42 44 45 47 48 48
32 32 32 27 28 29 28 26 24 25 32 36 31 32 31 24 27 26 28 33 36 36 36 34 28 25 29 29 31 32 35 36 36 37 35 36 37 40 42 43 43 44 47 47 47
30 29 28 26 28 30 30 23 28 28 30 28 29 34 33 28 34 26 32 31 32 35 33 32 24 22 23 27 27 28 34 35 36 36 37 35 36 43 43 43 44 44 45 45 45
35 36 38 30 28 30 29 29 30 34 33 36 35 33 31 35 37 37 37 36 36 32 25 26 22 22 25 17 21 23 27 34 36 38 38 32 41 42 40 41 42 43 44 44 44

GFSSW_sfc_temp_252.txt.gz
Temp
60 60 60 60 60 60 60 60 61 60 60 61 61 61 61 61 61 64 57 61 62 63 63 64 64 62 62 57 60 58 42 41 47 50 54 63 61 69 74 69 71 75 70 69 71
59 59 59 59 59 60 60 60 60 60 60 60 61 61 61 61 60 61 64 64 64 64 60 57 54 56 52 54 54 48 41 44 54 56 52 56 55 56 61 64 65 65 68 69 70
58 58 58 59 59 59 59 60 60 60 60 60 60 60 60 60 56 58 64 65 64 64 62 60 58 54 47 52 51 49 41 49 52 55 56 53 53 59 54 57 61 60 64 63 65
58 58 58 58 58 59 59 60 60 60 60 60 60 60 60 59 45 62 63 64 63 63 61 57 53 46 44 42 51 42 49 51 51 54 53 50 55 52 56 54 65 64 66 65 63
57 57 57 57 58 58 59 59 59 60 60 60 60 60 58 54 55 67 64 65 65 64 58 52 48 46 39 42 45 42 46 50 52 52 51 53 50 51 53 61 64 65 66 64 62
57 57 57 57 57 58 58 59 59 59 60 60 60 60 56 49 66 68 65 64 62 60 57 54 49 48 41 41 41 47 47 47 49 49 51 47 49 51 54 61 60 60 62 61 63
57 57 57 57 57 58 58 58 59 59 59 60 60 61 54 54 67 66 66 62 62 60 54 57 53 46 46 42 50 46 40 45 46 48 46 49 43 46 54 60 57 57 55 56 58
57 56 56 57 57 57 58 58 58 58 59 60 60 59 52 65 65 65 65 62 64 63 59 58 56 50 44 47 44 41 40 31 45 48 48 45 35 50 55 57 55 54 53 54 54
56 56 56 56 57 57 57 58 58 58 60 60 56 55 51 65 60 63 63 56 59 61 59 60 54 46 44 36 34 35 28 31 39 49 47 43 37 49 53 55 51 53 53 54 54
56 56 56 56 56 57 57 59 58 58 60 63 61 49 57 53 58 60 64 60 55 56 53 51 47 40 40 35 27 29 30 33 33 43 46 41 38 45 50 52 47 52 53 52 52
56 56 56 56 57 57 55 56 51 49 55 48 50 51 54 57 62 59 60 57 55 51 44 48 39 36 38 40 35 33 32 31 34 41 36 33 36 36 45 47 45 50 51 51 52
56 56 55 56 56 57 55 50 46 46 43 53 53 53 56 56 50 55 59 51 50 44 50 43 36 46 47 46 40 34 33 31 34 41 37 34 32 36 41 39 44 47 50 50 52
56 55 55 55 56 55 51 48 54 54 42 49 52 51 51 52 49 50 53 49 47 46 45 38 45 51 50 45 43 39 36 33 32 34 36 36 32 34 38 43 47 47 49 50 50
55 55 55 55 51 52 48 53 55 53 35 41 47 49 53 52 46 56 55 49 48 43 45 45 50 47 47 45 44 39 45 40 36 34 29 39 24 35 40 40 44 45 45 46 48
55 54 54 54 51 49 50 54 54 47 27 42 46 57 54 48 47 49 54 50 43 43 43 41 42 41 43 43 45 43 48 46 42 39 38 37 29 36 43 39 42 43 45 46 47
54 54 54 54 52 50 53 52 47 34 26 35 44 44 45 48 48 51 50 52 49 44 47 44 48 45 43 46 46 50 47 48 44 41 26 34 33 30 35 39 44 45 45 46 47
54 53 53 55 47 52 51 46 33 28 36 31 35 42 41 40 43 44 43 36 31 32 29 38 42 46 48 43 47 42 40 28 24 21 20 38 32 32 41 43 45 45 46 47 47
53 53 51 51 52 51 47 36 27 29 28 37 36 39 35 38 40 41 39 35 40 36 31 27 27 41 46 40 34 36 39 25 21 22 25 36 26 31 44 47 47 48 48 49 47
53 51 49 48 50 49 40 29 31 29 36 35 35 31 31 36 35 38 33 33 38 39 29 26 29 45 44 45 42 38 31 39 31 23 25 28 32 41 45 44 45 45 46 44 45
49 48 46 49 49 44 33 35 28 34 38 38 30 31 26 29 30 31 32 36 36 41 40 36 26 37 43 45 43 40 43 30 30 18 17 26 28 28 38 41 43 41 41 43 44
47 39 43 49 45 37 30 30 29 36 38 34 32 26 31 28 27 30 31 35 39 39 41 38 33 32 39 34 32 35 34 37 37 32 26 23 24 40 40 42 41 41 43 42 43
44 32 44 45 32 31 31 29 36 34 38 34 32 34 32 32 29 29 30 35 40 39 33 39 34 25 32 39 41 37 35 38 26 28 30 31 24 44 42 43 44 43 44 43 44
34 35 44 42 28 28 28 27 30 32 34 33 30 34 37 32 26 31 29 37 40 38 33 37 28 22 24 33 38 35 38 39 38 33 30 23 24 43 42 41 44 42 43 43 43
35 30 35 37 36 32 28 27 25 35 35 38 36 36 32 28 27 25 32 36 37 37 39 38 32 25 20 26 31 30 36 37 35 25 29 29 28 35 39 39 40 41 42 42 43
33 33 33 26 29 32 31 29 27 24 33 37 31 33 31 22 27 23 28 33 36 38 36 31 19 24 28 29 31 31 32 36 33 34 27 31 31 37 39 39 40 42 44 43 43
31 31 31 32 33 32 32 28 30 31 29 28 29 33 33 26 30 25 30 30 29 33 33 33 17 21 16 27 27 26 30 32 33 35 36 38 35 43 42 41 39 42 43 42 42
40 40 39 35 32 30 30 31 32 35 35 37 35 33 32 34 38 38 38 37 34 30 23 23 15 13 14 16 17 13 21 29 31 35 36 30 37 41 38 41 40 41 42 42 42

GFSSW_sfc_temp_255.txt.gz
Temp
60 60 60 60 60 60 60 61 61 61 61 61 61 61 61 61 61 59 53 59 60 64 63 59 59 57 55 51 53 51 35 32 38 42 44 50 48 54 60 56 64 65 61 68 67
59 59 59 59 59 60 60 60 60 60 60 60 61 61 61 61 55 54 62 65 65 64 56 53 50 53 46 49 48 42 33 37 45 46 45 49 48 49 51 53 59 60 64 64 65
59 59 59 59 59 59 60 60 60 60 60 60 60 61 60 59 51 52 64 64 64 63 59 57 55 51 43 46 46 43 36 44 47 50 50 48 48 51 49 49 53 54 59 62 62
58 58 58 58 58 59 59 59 60 60 60 60 60 60 60 55 40 57 65 65 65 62 57 53 49 42 39 38 44 37 45 47 48 50 49 45 48 47 48 52 57 60 62 61 60
57 57 57 58 58 58 59 59 59 60 60 60 60 60 55 49 50 62 65 64 62 60 54 50 44 41 35 38 41 37 42 47 48 48 48 50 45 45 47 55 58 62 62 58 61
57 57 57 57 57 58 58 59 59 59 59 60 61 60 51 44 62 64 62 60 60 56 53 51 47 44 39 38 37 42 43 44 46 46 47 45 44 46 47 53 57 59 56 57 60
57 57 57 57 57 58 58 58 59 59 59 60 61 58 51 50 62 62 62 58 59 57 51 53 49 43 42 38 45 43 36 41 43 45 44 47 39 41 51 53 53 57 56 55 56
57 56 56 57 57 57 58 58 59 59 59 60 60 54 47 61 59 61 61 58 60 59 56 55 52 47 42 44 42 39 38 28 42 44 46 43 31 44 49 50 52 52 53 53 54
56 56 56 57 57 57 58 58 59 59 60 60 53 50 45 62 56 59 58 55 55 57 56 60 52 43 44 37 34 34 22 31 36 46 44 42 33 41 48 50 48 51 52 53 53
56 56 56 56 57 57 58 59 58 57 58 60 58 46 52 50 54 58 59 57 52 51 49 46 42 36 36 35 27 29 29 32 30 38 39 35 35 41 44 46 44 48 51 52 52
56 56 56 56 57 57 52 48 45 45 49 43 46 47 50 54 57 54 57 54 52 47 39 43 34 29 35 37 35 32 32 30 33 39 36 34 35 38 42 42 42 49 50 51 52
56 56 55 56 56 57 50 43 41 43 39 49 50 50 53 52 47 52 56 46 46 38 44 37 29 42 44 41 39 33 29 30 35 39 36 35 33 38 40 40 43 46 46 48 52
56 55 55 56 56 50 45 43 50 47 37 45 48 48 48 50 46 47 50 46 42 41 39 31 40 47 44 40 38 37 34 33 32 34 35 35 31 34 38 40 45 46 47 46 48
55 55 55 55 50 46 42 49 50 46 27 38 43 47 50 49 43 53 51 46 43 39 41 38 45 43 41 40 40 35 42 39 36 33 24 35 23 31 33 34 38 41 43 44 46
55 54 55 55 44 43 46 50 48 42 19 39 42 53 50 44 45 46 51 46 39 40 39 37 40 38 38 40 41 39 44 42 41 37 34 31 27 30 35 35 37 41 42 45 47
54 54 54 49 44 44 48 46 42 26 19 32 41 40 41 44 44 47 46 48 45 40 41 40 44 41 39 43 42 46 42 42 39 34 22 31 29 30 33 34 37 41 43 45 46
54 53 51 50 41 46 45 39 25 20 32 26 31 37 36 35 40 41 39 33 27 25 24 34 38 43 43 38 43 39 36 23 21 21 19 33 29 28 38 42 42 42 43 44 47
53 52 49 47 45 44 40 28 20 20 20 34 33 35 30 34 35 38 35 28 36 32 22 21 24 37 43 36 33 33 34 22 17 20 23 32 25 29 41 43 44 45 45 46 45
53 43 42 43 46 42 32 17 23 23 33 32 32 28 25 33 32 34 28 27 33 35 24 20 25 40 41 41 38 36 30 37 29 19 22 25 30 37 41 41 41 42 42 42 42
41 40 40 44 43 38 25 26 23 31 34 35 26 29 19 24 28 28 29 33 33 37 37 31 23 34 40 42 41 36 41 29 26 14 14 24 25 26 34 36 38 37 37 39 40
43 34 40 44 41 31 21 19 22 33 35 33 29 22 28 24 23 26 29 33 35 36 37 35 30 30 35 31 29 31 31 33 33 29 24 21 23 35 36 38 36 37 39 38 38
41 30 39 41 26 18 20 22 35 31 35 32 31 33 30 29 26 25 29 32 37 36 30 35 31 20 28 37 39 35 33 34 25 27 28 29 24 40 39 39 39 39 40 39 39
33 34 41 38 20 17 19 20 28 31 31 31 28 32 34 30 23 29 28 35 37 35 32 34 23 15 22 30 35 31 35 36 35 30 28 22 23 39 39 38 39 38 38 38 38
34 28 34 36 30 26 18 19 20 32 33 35 33 33 30 26 25 24 29 34 35 35 40 37 29 24 21 25 28 28 33 35 32 22 27 28 26 32 35 35 37 37 37 37 38
33 32 32 24 24 26 26 25 22 21 30 34 30 31 28 20 24 22 25 30 34 37 34 29 16 22 27 29 28 29 30 32 31 32 27 29 29 34 36 36 36 37 39 39 39
31 32 32 30 29 29 30 23 27 28 28 26 27 30 30 25 29 23 29 28 27 31 31 31 14 17 13 25 25 25 28 28 30 33 33 34 31 38 38 37 35 39 39 38 39
38 39 38 34 30 25 25 29 29 32 32 34 32 30 29 31 34 33 34 32 32 29 21 20 13 9 9 13 15 14 20 28 29 32 34 29 35 37 36 39 37 38 39 39 39

GFSSW_sfc_temp_261.txt.gz
Temp
59 59 59 60 60 60 60 60 60 60 60 60 61 61 61 61 61 56 49 57 59 65 62 54 54 52 51 48 49 46 33 29 32 34 36 43 41 46 51 47 51 56 56 60 63
59 59 59 59 59 59 60 60 60 60 60 60 60 61 61 60 53 51 60 65 66 65 53 49 47 49 43 44 44 38 31 32 38 39 39 43 41 44 44 45 49 52 58 61 61
58 58 58 58 59 59 59 60 60 60 60 60 60 61 60 57 49 50 65 66 66 62 55 53 50 47 41 42 40 39 33 39 41 43 43 42 42 44 42 41 46 46 51 55 59
57 57 58 58 58 58 59 59 59 59 59 60 60 61 60 52 39 54 65 65 64 59 55 50 46 39 36 36 40 35 41 42 43 45 43 40 44 41 41 44 50 50 55 55 57
57 57 57 57 58 58 59 59 59 59 59 59 60 61 53 47 47 60 63 62 59 56 50 47 42 39 33 34 38 34 38 42 43 43 42 44 41 40 41 46 50 51 55 54 56
56 56 56 57 57 58 58 59 59 59 59 59 60 60 49 42 58 60 58 57 56 53 49 47 43 42 37 36 34 38 38 40 42 42 43 41 40 41 43 48 47 50 53 54 55
56 56 56 57 57 57 58 58 59 59 59 60 60 56 49 47 57 58 58 55 55 53 49 49 47 42 39 37 41 39 35 38 40 41 40 42 38 38 48 46 45 50 53 54 56
56 56 56 56 57 57 58 58 59 59 59 60 60 51 44 57 55 57 57 54 56 55 53 51 50 44 39 42 40 34 34 27 38 40 41 40 30 43 47 46 44 48 52 53 55
56 56 56 56 57 57 57 58 58 59 60 60 51 47 42 60 53 55 54 51 52 53 52 57 49 41 41 32 27 27 21 29 33 41 39 37 33 42 47 48 44 49 49 50 53
56 56 56 56 56 57 58 58 59 57 56 57 54 44 49 47 51 54 54 53 49 48 47 44 40 34 33 25 19 24 18 27 26 36 40 36 35 40 44 45 44 46 48 49 50
56 56 56 56 57 58 52 48 45 45 47 41 42 43 47 52 52 51 52 50 48 45 36 40 32 26 28 31 29 23 22 24 29 38 35 33 34 38 41 42 42 44 45 46 48
56 56 56 56 57 56 47 42 39 41 38 46 46 46 49 48 44 49 53 44 43 36 39 34 27 36 38 37 33 25 22 25 31 38 35 33 32 39 40 40 42 42 43 45 47
56 55 55 56 56 49 43 42 47 44 38 42 45 45 45 48 42 44 48 43 40 37 36 31 36 41 38 35 34 35 29 28 27 34 35 32 30 35 40 41 43 44 44 44 44
56 55 55 56 49 44 41 47 47 44 25 37 41 44 47 45 41 49 48 43 41 35 36 35 40 39 36 35 36 31 38 35 34 31 22 32 18 33 35 36 39 41 42 42 43
55 54 55 53 42 41 44 46 45 42 21 37 40 50 47 41 42 44 47 44 36 36 36 35 35 34 35 37 38 36 40 36 36 32 29 29 23 32 36 33 35 38 41 41 43
55 54 54 47 42 42 45 43 41 27 20 32 38 37 38 40 41 44 43 45 42 36 36 36 40 37 36 39 38 40 36 36 34 30 21 27 25 27 30 34 36 37 40 41 43
54 53 49 47 40 43 42 38 26 22 32 27 31 35 34 34 37 38 36 31 26 24 21 33 35 38 39 34 37 37 31 22 18 16 18 29 27 27 34 37 36 36 38 41 43
54 51 47 45 42 42 39 29 21 18 19 33 33 34 30 33 34 35 32 27 33 28 18 21 24 34 39 34 32 32 31 23 16 17 22 30 25 29 36 39 39 42 42 42 41
52 41 40 41 43 40 32 19 22 20 32 32 32 26 24 32 31 30 26 25 30 31 24 20 25 37 37 38 35 31 28 33 26 15 19 22 29 34 36 36 36 39 40 38 37
43 42 38 41 41 37 25 27 22 31 34 34 26 27 17 21 26 26 26 31 31 34 34 29 23 32 36 37 36 33 36 27 25 12 12 22 25 26 31 33 34 34 34 34 36
42 32 38 41 39 29 21 18 20 32 34 32 29 20 27 23 20 23 27 31 32 32 33 32 28 29 33 30 28 31 30 31 30 28 21 18 24 31 34 35 34 33 35 33 34
40 33 39 39 25 9 18 19 34 31 33 31 31 31 29 27 23 23 28 31 33 33 30 32 30 22 28 33 35 31 29 30 24 24 25 27 25 35 36 36 35 34 35 34 34
33 34 41 42 27 15 17 19 27 30 31 31 28 32 32 30 24 28 27 34 34 33 31 33 22 14 22 29 33 30 33 33 31 29 25 20 24 35 34 33 34 33 33 34 32
34 29 34 36 33 28 16 18 21 31 32 33 32 32 30 26 23 23 30 33 35 34 40 37 28 23 20 26 26 29 31 33 30 20 25 26 25 29 31 32 32 33 34 33 33
33 33 33 27 25 30 30 23 21 23 31 33 29 31 29 20 23 22 23 29 32 37 32 29 17 20 27 29 29 29 30 31 29 29 26 27 27 32 34 34 34 34 34 34 35
33 32 33 31 32 32 32 25 29 29 28 26 27 31 30 25 30 24 29 28 28 29 30 30 15 16 13 23 24 23 27 28 30 30 28 29 29 36 35 33 31 34 34 34 34
38 40 40 34 31 31 29 31 31 34 32 34 31 29 29 32 32 30 31 31 31 28 21 19 13 9 12 12 14 16 20 28 27 28 31 27 34 32 30 35 35 35 36 36 35